Regional Weather Roundup
Issued by NWS Green Bay, WI

Home | Current Version | Previous Version | Graphics & Text | Print | Product List | Glossary Off
Versions: 1 2 3 4 5 6 7 8 9 10 11 12 13 14 15 16 17 18 19 20 21 22 23 24 25 26 27 28 29 30 31 32 33 34 35 36 37 38 39 40 41 42 43 44 45 46 47 48 49 50

000
ASUS43 KGRB 291459
RWRGRB

NORTH-CENTRAL AND NORTHEAST WISCONSIN REGIONAL WEATHER ROUNDUP
NATIONAL WEATHER SERVICE GREEN BAY WI
1000 AM CDT TUE JUL 29 2014

WIZ005-009-010>012-018-019-291600-
NORTH CENTRAL WISCONSIN

CITY           SKY/WX    TMP DP  RH WIND       PRES   REMARKS
IRONWOOD       CLOUDY    64  57  77 W8        30.04S
MANITOWISH WTR NOT AVBL
ARBOR VITAE    NOT AVBL
EAGLE RIVER    NOT AVBL
LAND O LAKES   NOT AVBL
RHINELANDER    PTSUNNY   63  55  75 VRB3      30.07S
PHILLIPS       SUNNY     64  57  78 N3        30.08S
ANTIGO         NOT AVBL
TOMAHAWK       PTSUNNY   63  56  77 NW6       30.07F
MERRILL        NOT AVBL
$$

WIZ013-073-291600-
NORTHEAST WISCONSIN

CITY           SKY/WX    TMP DP  RH WIND       PRES   REMARKS
IRON MOUNTAIN  PTSUNNY   66  53  63 NW14      30.00S
MARINETTE      MOSUNNY   64  54  68 N7        29.99S
$$

WIZ017-030-035>037-045-291600-
CENTRAL WISCONSIN

CITY           SKY/WX    TMP DP  RH WIND       PRES   REMARKS
MEDFORD        NOT AVBL
WAUSAU         MOSUNNY   65  54  67 NW9       30.05S
MOSINEE        PTSUNNY   64  57  77 NW6       30.07S
MARSHFIELD     SUNNY     71  55  56 NW13      30.07F
WISC RAPIDS    MOSUNNY   70  55  59 NW8       30.07F
STEVENS POINT  NOT AVBL
WAUPACA        CLOUDY    69  55  61 NW7       30.05S
SHAWANO        CLOUDY    68  55  64 NW6       30.03S
CLINTONVILLE   CLOUDY    66  52  59 NW8       30.03S
$$

WIZ038-039-048-051-291600-
FOX VALLEY

CITY           SKY/WX    TMP DP  RH WIND       PRES   REMARKS
NWS GREEN BAY  PTSUNNY   70  56  61 N7        30.02F
APPLETON       CLOUDY    66  54  63 NW8       30.04
OSHKOSH        PTSUNNY   69  55  60 NW7       30.04S
FOND DU LAC    SUNNY     68  54  60 N9        30.04F
$$

WIZ022-050-052-291600-
EAST CENTRAL WISCONSIN

CITY           SKY/WX    TMP DP  RH WIND       PRES   REMARKS
STURGEON BAY   MOSUNNY   64  54  68 NW6       30.01S
MANITOWOC      NOT AVBL
SHEBOYGAN      SUNNY     68  57  68 VRB5      30.02F
$$

LMZ563-521-522-541>543-291600-
LAKESHORE

STATION/POSITION TIME  TEMP    WIND        PRES    VSBY  WAVE
                       AIR SEA DIR/SP/G                  HT/PER
                 (UTC) (F)     (DEG/KT/KT) (MB)    (MI)  (FT/S)
SHEBOYGAN LKSHOR 1400   65     320/  8/  9 1016.7S
KEWAUNEE LKSHORE 1400   66     330/  5/  7 1016.7F
NORTHPORT PIER   1400   61     320/ 12/ 15 1015.6R
N MID LAKE BUOY  1400   55 51  290/  6/  6 1014.7R         1
S GREEN BAY BUOY 1400   63 66  330/ 10     1017.2R
CHAMBERS ISLAND  1400   64     320/  7/  9 1015.9S
MENOMINEE LKSHOR 1400   63     320/  7/ 10 1016.2F
$$



USA.gov is the U.S. government's official web portal to all federal, state and local government web resources and services.